AirNav   Air Wisconsin Up To $57,000 Bonus
 
 928 users online  

CN12 Williams Gliderport
Williams, California, USA

GOING TO WILLIAMS?


FAA INFORMATION EFFECTIVE 25 FEBRUARY 2021

Location

FAA Identifier: CN12
Lat/Long: 39-09-48.6080N 122-07-53.9080W
39-09.810133N 122-07.898467W
39.1635022,-122.1316411
(estimated)
Elevation: 68 ft. / 21 m (estimated)
Variation: 16E (1985)
From city: 1 mile NE of WILLIAMS, CA
Time zone: UTC -8 (UTC -7 during Daylight Saving Time)
Zip code: 95987

Gliderport Operations

Gliderport use: Private use. Permission required prior to landing
Control tower: no
ARTCC: OAKLAND CENTER
FSS: RANCHO MURIETA FLIGHT SERVICE STATION
Attendance: UNATNDD
Wind indicator: yes
Segmented circle: no
Landing fee: yes

Nearby radio navigation aids

VOR radial/distance  VOR name  Freq  Var
ILAr301/7.4WILLIAMS VORTAC114.4018E
MYVr263/26.3MARYSVILLE VOR/DME110.8016E

Gliderport Services

Airframe service: NONE
Powerplant service: NONE

Runway Information

Runway 16/34

Dimensions: 2500 x 40 ft. / 762 x 12 m
Surface: asphalt
RUNWAY 16  RUNWAY 34
Traffic pattern: rightright

Gliderport Ownership and Management from official FAA records

Ownership: Privately-owned
Owner: VACAVILLE AERO SVCS INC
2668 HUSTED ROAD
WILLIAMS, CA 95987-5105
Phone 530-473-5600
Manager: BRETT R. MAYES
2668 HUSTED ROAD
WILLIAMS, CA 95987-5105
Phone 530-473-5600
ADD'L CONTACT NOELLE MAYES, 530-330-4354, NOELLE@WILLIAMSSOARING.COM

Gliderport Operational Statistics

Aircraft based on the field: 59
Single engine airplanes: 7
Multi engine airplanes: 2
Gliders airplanes: 50
    

Additional Remarks

RWY/APRON - POOR; UNPAVED PORTION - POOR/SOFT WHEN WET.
FOR CD CTC OAKLAND ARTCC AT 510-745-3380.

Instrument Procedures

There are no published instrument procedures at CN12.

Some nearby airports with instrument procedures:

O08 - Colusa County Airport (6 nm E)
KWLW - Willows-Glenn County Airport (22 nm N)
KMYV - Yuba County Airport (26 nm E)
KOVE - Oroville Municipal Airport (31 nm NE)
O41 - Watts-Woodland Airport (32 nm S)
 
Loc | Ops | Rwys | IFR | FBO | Links
Com | Nav | Svcs | Stats | Notes

Sonoma Jet Center
 
Area around CN12 (Williams Gliderport)
 
Road maps at: MapQuest Bing Google
 
Aerial photo
WARNING: Photo may not be current or correct
Aerial photo of CN12 (Williams Gliderport)
Photo by Kempton Izuno

Do you have a better or more recent aerial photo of Williams Gliderport that you would like to share? If so, please send us your photo.

 
Sectional chart

 
Airport distance calculator
Flying to Williams Gliderport? Find the distance to fly.

From to CN12

Sunrise and sunset
Times for 04-Mar-2021
 Local
(UTC-8)
 Zulu
(UTC)
Morning civil twilight06:1114:11
Sunrise06:3814:38
Sunset18:0302:03
Evening civil twilight18:3002:30

Current date and time
Zulu (UTC)  04-Mar-2021 13:38:24
Local (UTC-8)  04-Mar-2021 05:38:24
 
METAR
KMYV 
27nm E 
041253Z AUTO 14011KT 10SM CLR 07/03 A3015 RMK AO2 SLP213 T00720033
KOVE 
31nm NE 
041253Z AUTO 14013KT 10SM CLR 09/03 A3015 RMK AO2 SLP212 T00940028
KBAB 
32nm E 
041258Z AUTO 12012KT 10SM CLR 07/04 A3014 RMK AO2 SLP210 T00680038 $
KSMF 
37nm SE 
041253Z 17008KT 10SM FEW250 07/04 A3015 RMK AO2 SLP208 T00720039
KDWA 
37nm S 
041315Z AUTO 14005KT 10SM CLR 05/04 A3016 RMK AO2
KLHM 
39nm SE 
041315Z AUTO 13007KT 10SM CLR 06/04 A3016 RMK AO1
KCIC 
40nm N 
041315Z AUTO 14015KT 10SM CLR 09/02 A3014 RMK AO1
KEDU 
41nm SE 
041315Z AUTO 18006KT 10SM CLR 05/04 A3015 RMK AO1
KMCC 
45nm SE 
041315Z AUTO 12006KT 10SM CLR 05/04 A3017 RMK AO2
KVCB 
48nm S 
041253Z AUTO 00000KT 10SM CLR 06/02 A3015 RMK AO2 SLP209 T00560017
TAF
KBAB 
32nm E 
040304Z 0403/0509 13010G15KT 9999 FEW200 510103 QNH2979INS BECMG 0412/0413 14009KT 9999 SCT010 510103 QNH3013INS TEMPO 0415/0417 BKN010 BECMG 0418/0419 18010KT 9999 SKC QNH3018INS BECMG 0502/0503 13005KT 9999 SKC QNH3020INS TX19/0422Z TN05/0415Z
NOTAMs
Click for the latest NOTAMs
NOTAMs are issued by the DoD/FAA and will open in a separate window not controlled by AirNav.

 

 
 

Would you like to see your business listed on this page?

 If your business provides an interesting product or service to pilots, flight crews, aircraft, or users of the Williams Gliderport, you should consider listing it here.  To start the listing process, click on the button below
 
Add a business
 

Other Pages about Williams Gliderport

Update a link
 
Copyright © AirNav, LLC. All rights reserved. Privacy Policy  Contact